Location: ???????
(56.2167°N, 38.0500°E)
Time: 17:43:24
(UTC+00:00)

Cosmos 2360 Rocket - Pass Details

Date: 19 May 2025
Orbit: 834 x 842 km, 71.0° (Epoch: 20 June)

Event Time Altitude Azimuth Distance (km) Brightness Sun altitude
Rises 21:26:10 0° 324° (NW) 3,396 6.3 -13.8°
Reaches altitude 10° 21:28:40 10° 319° (NW) 2,457 5.3 -13.8°
Maximum altitude 21:34:06 51° 245° (WSW) 1,040 2.5 -13.8°
Enters shadow 21:37:49 20° 177° (S) 1,847 3.3 -13.8°
